STARLINK-32253, 60733

Orbit data source: Space-Track

STARLINK-32253, 60733 is a payload satellite owned by SpaceX/Seattle (US) in LEO that was launched on Wed, 28 Aug 2024 UTC via an FALCON 9 launch vehicle from the Air Force Eastern Test Range (AFETR). Payload-class satellites include a variety of spacecraft equipped with specific instruments for various scientific and technological missions. These include communications satellites like Starlink; space stations such as the ISS; scientific satellites like the Hubble; Earth observation satellites from companies like Planet Labs, Umbra, and HawkEye 360; GPS; miniature CubeSats for education and research; and military/defense satellites.

Loading next visibility...
Identifier
60733, 2024-152P
Orbit
LEO
Last TLE update
14 hours ago
Origin
Manufacturer
SpaceX/Seattle
Mission
Operational Commercial Communications
Bus & Motor
STARLINK V2M, Unknown motor
Mass
730 kg wet, ~700 kg dry
Launch date (UTC)
2024-08-28 (10 months ago)
Launch vehicle
FALCON 9
Launch site
Air Force Eastern Test Range (AFETR)
Object type
Payload
Rocket body
Debris
Shape & HBR
Box + 2 Pan, 29 m
Radar Cross Section
36.964 m², Large (>1 m²)

Expand to show TLE details & history

TLE from 14 hours ago
0 STARLINK-32253
1 60733U 24152P   25189.75059803 -.00002218  00000-0 -62832-4 0  9995
2 60733  53.1602 321.4277 0001183 110.6823 249.4304 15.30172202 49459
Epoch: 2025-07-08T18:00Z
TLE epoch observation values (Epoch: 2025-07-08T18:00:51.669Z)
Latitude
-0.00009°
Longitude
124.27125°
Altitude
476.483 km
Speed
7.629 km/s
True Right ascension
21h 25m 42s
True Declination
0° 00' 00"
Sunlit
Object was in full shadow at epoch
Visualization orbit readout
Latitude
35.05573°
Longitude
153.0194°
Altitude
477.576 km
Speed
7.632 km/s
Apparent Right ascension
03h 15m 21s
Apparent Declination
-2° 15' 04"
Sunlit
Object is in daylight
Visualization observer readout
Local Sidereal Time
20:28:54
Azimuth
84.227° E
Elevation
-10.34°
Doppler factor
1
Orbital elements
Apogee altitude
476.365 km
Perigee altitude
474.744 km
Semi-major axis
6,853.691 km
Eccentricity
0.00012
Inclination
53.1602°
RAAN
321.4277°
Arg. of periapsis
110.6823°
True anomaly
Unknown
Mean anomaly
249.4304°
Eccentric anomaly
Unknown
Mean motion
3.82522 °/min
Orbital period
94.11 mins
BSTAR
-0.000062832
Loading maneuver chart data...
Loading SW <> Apogee altitude chart data...
Loading historical data...
Loading historical data...
Loading historical data...
Loading historical data...
Loading historical data...
Loading historical data...
Loading historical data...

STARLINK-32253 Visibility forecast

Observer location: undefined°, undefined°

Span
Click to sort rows by Start time (UTC) header in descending order
Start Az.
Max El. time (UTC)
Max El. Az.
Max El.
End time (UTC)
End Az.
6 mins2025-07-09 11:26:15.871Z222.547° SW2025-07-09 11:29:15.871Z98.184° ESE43.668°2025-07-09 11:32:15.871Z53.223° ENE
5 mins2025-07-09 18:02:15.871Z323.451° NNW2025-07-09 18:04:15.871Z53.804° ENE41.56°2025-07-09 18:07:15.871Z118.673° SE
|